Skagway, AK

9:55 PM AKST on February 20, 2017 (GMT -0900)
Skagway

Weather History for PAGY - August, 2012

Change the Weather History Date:

Wednesday, August 22, 2012

  Actual Average Record
Temperature  
Mean Temperature 52 °F -  
Max Temperature 55 °F 59 °F 84 °F (1965)
Min Temperature 50 °F 48 °F 40 °F (1984)
Degree Days  
Heating Degree Days 12    
Growing Degree Days 2 (Base 50)    
Moisture  
Dew Point 51 °F    
Average Humidity 95    
Maximum Humidity 100    
Minimum Humidity 86    
Precipitation  
Precipitation 0.20 in - - ()
Sea Level Pressure  
Sea Level Pressure 29.92 in    
Wind  
Wind Speed 1 mph (SW)    
Max Wind Speed 12 mph    
Max Gust Speed 18 mph    
Visibility 4 miles    
Events Fog , Rain    
Averages and records for this station are not official NWS values.
T = Trace of Precipitation, MM = Missing Value Source: NWS Daily Summary

Daily Weather History Graph

Daily Weather History Graph

Search for Another Location

Airport or City:

Trip Planner

Search our weather history database for the weather conditions in past years. The results will help you decide how hot, cold, wet, or windy it might be!

Date:

Astronomy

Aug. 22, 2012 Rise Set
Actual Time 5:36 AM AKDT 8:30 PM AKDT
Civil Twilight 4:49 AM AKDT 9:16 PM AKDT
Nautical Twilight 3:44 AM AKDT 10:20 PM AKDT
Astronomical Twilight 2:02 AM AKDT 11:56 PM AKDT
Moon 1:11 PM AKDT (8/22) 9:25 PM AKDT (8/22)
Length of Visible Light 16h 27m
Length of Day
14h 54m
Waxing Crescent, 30% of the Moon is Illuminated
Aug 22
Waxing Crescent
Aug 24
First Quarter
Aug 31
Full
Sep 8
Last Quarter
Sep 15
New

Hourly Weather History & Observations

Time (AKDT) Temp. Dew Point Humidity Pressure Visibility Wind Dir Wind Speed Gust Speed Precip Events Conditions
12:53 AM 55.0 °F 52.0 °F 89% 29.93 in 10.0 mi Calm Calm - N/A   Overcast
1:53 AM 53.1 °F 51.1 °F 93% 29.93 in 10.0 mi Calm Calm - N/A   Overcast
2:53 AM 53.1 °F 51.1 °F 93% 29.93 in 10.0 mi Calm Calm - N/A   Overcast
3:53 AM 51.1 °F 48.9 °F 92% 29.92 in 7.0 mi Calm Calm - N/A   Overcast
4:33 AM 50.0 °F 48.2 °F 94% 29.92 in 1.8 mi Calm Calm - N/A   Overcast
4:43 AM 51.8 °F 48.2 °F 88% 29.93 in 3.0 mi SSW 3.5 mph - N/A   Overcast
4:50 AM 51.8 °F 48.2 °F 88% 29.93 in 1.8 mi Calm Calm - N/A   Overcast
4:53 AM 51.1 °F 50.0 °F 96% 29.93 in 1.8 mi Calm Calm - N/A   Overcast
4:55 AM 51.8 °F 50.0 °F 94% 29.92 in 2.0 mi Calm Calm - N/A   Overcast
5:02 AM 51.8 °F 50.0 °F 94% 29.92 in 5.0 mi Calm Calm - N/A   Overcast
5:12 AM 51.8 °F 51.8 °F 100% 29.92 in 3.0 mi Calm Calm - 0.00 in Rain Light Rain
5:25 AM 51.8 °F 51.8 °F 100% 29.92 in 2.5 mi Calm Calm - 0.00 in Rain Light Rain
5:30 AM 51.8 °F 51.8 °F 100% 29.92 in 1.2 mi Calm Calm - 0.00 in Rain Light Rain
5:40 AM 51.8 °F 50.0 °F 94% 29.92 in 0.5 mi Calm Calm - 0.00 in Fog , Rain Light Rain
5:53 AM 51.1 °F 50.0 °F 96% 29.93 in 0.5 mi Calm Calm - 0.00 in Fog , Rain Light Rain
6:53 AM 50.0 °F 50.0 °F 100% 29.93 in 0.5 mi Calm Calm - 0.03 in Fog , Rain Light Rain
7:13 AM 51.8 °F 51.8 °F 100% 29.92 in 1.2 mi Calm Calm - 0.00 in   Overcast
7:24 AM 51.8 °F 51.8 °F 100% 29.92 in 0.5 mi Calm Calm - 0.00 in Fog Fog
7:31 AM 51.8 °F 51.8 °F 100% 29.93 in 0.2 mi Calm Calm - 0.00 in Fog , Rain Light Rain
7:53 AM 51.1 °F 50.0 °F 96% 29.92 in 0.2 mi Calm Calm - 0.00 in Fog , Rain Light Rain
8:12 AM 51.8 °F 50.0 °F 94% 29.93 in 1.0 mi Calm Calm - 0.00 in Rain Light Rain
8:16 AM 51.8 °F 50.0 °F 94% 29.93 in 1.2 mi Calm Calm - 0.01 in Rain Light Rain
8:23 AM 50.0 °F 50.0 °F 100% 29.92 in 0.2 mi Calm Calm - 0.01 in Fog , Rain Light Rain
8:45 AM 51.8 °F 51.8 °F 100% 29.93 in 0.5 mi SW 3.5 mph - 0.01 in Fog Fog
8:53 AM 50.0 °F 50.0 °F 100% 29.93 in 0.2 mi SW 3.5 mph - 0.01 in Fog Fog
9:10 AM 50.0 °F 48.2 °F 94% 29.93 in 1.0 mi Calm Calm - N/A   Mist
9:15 AM 50.0 °F 50.0 °F 100% 29.93 in 2.0 mi Calm Calm - N/A   Overcast
9:25 AM 51.8 °F 51.8 °F 100% 29.93 in 3.0 mi Calm Calm - N/A   Overcast
9:41 AM 51.8 °F 50.0 °F 94% 29.92 in 2.0 mi Calm Calm - N/A   Overcast
9:53 AM 51.1 °F 50.0 °F 96% 29.93 in 1.2 mi Calm Calm - N/A   Overcast
10:10 AM 51.8 °F 51.8 °F 100% 29.92 in 2.0 mi Calm Calm - N/A   Overcast
10:22 AM 51.8 °F 50.0 °F 94% 29.93 in 1.2 mi Calm Calm - N/A   Overcast
10:33 AM 50.0 °F 50.0 °F 100% 29.93 in 0.8 mi Calm Calm - N/A   Overcast
10:41 AM 51.8 °F 51.8 °F 100% 29.92 in 1.5 mi Calm Calm - N/A   Overcast
10:50 AM 51.8 °F 51.8 °F 100% 29.92 in 2.0 mi Calm Calm - N/A   Overcast
10:53 AM 51.1 °F 51.1 °F 100% 29.93 in 2.0 mi Calm Calm - N/A   Overcast
11:07 AM 51.8 °F 51.8 °F 100% 29.93 in 1.5 mi Calm Calm - 0.00 in Rain Light Rain
11:14 AM 51.8 °F 51.8 °F 100% 29.92 in 1.0 mi Calm Calm - 0.01 in Rain Light Rain
11:23 AM 51.8 °F 50.0 °F 94% 29.92 in 0.5 mi Calm Calm - 0.01 in Fog , Rain Light Rain
11:36 AM 51.8 °F 51.8 °F 100% 29.93 in 1.5 mi Calm Calm - 0.01 in Rain Light Rain
11:43 AM 51.8 °F 51.8 °F 100% 29.93 in 3.0 mi Calm Calm - 0.01 in Rain Light Rain
11:53 AM 52.0 °F 51.1 °F 97% 29.92 in 5.0 mi Calm Calm - 0.01 in Rain Light Rain
12:15 PM 51.8 °F 51.8 °F 100% 29.93 in 10.0 mi Calm Calm - 0.00 in   Overcast
12:53 PM 52.0 °F 51.1 °F 97% 29.92 in 10.0 mi WSW 4.6 mph - 0.00 in   Overcast
1:53 PM 52.0 °F 50.0 °F 93% 29.92 in 10.0 mi SW 4.6 mph - 0.02 in Rain Light Rain
2:14 PM 51.8 °F 51.8 °F 100% 29.91 in 10.0 mi Calm Calm - 0.00 in Rain Light Rain
2:53 PM 53.1 °F 51.1 °F 93% 29.91 in 10.0 mi SW 5.8 mph - 0.00 in   Overcast
3:13 PM 53.6 °F 51.8 °F 94% 29.91 in 10.0 mi Variable 4.6 mph - N/A   Overcast
3:53 PM 55.0 °F 52.0 °F 89% 29.91 in 10.0 mi Calm Calm - 0.00 in Rain Light Rain
4:53 PM 55.0 °F 51.1 °F 86% 29.91 in 7.0 mi SSW 11.5 mph 16.1 mph 0.03 in Rain Light Rain
5:18 PM 53.6 °F 51.8 °F 94% 29.91 in 6.0 mi SW 6.9 mph - 0.01 in Rain Light Rain
5:53 PM 54.0 °F 51.1 °F 90% 29.91 in 6.0 mi SSW 5.8 mph - 0.03 in Rain Light Rain
6:53 PM 54.0 °F 50.0 °F 86% 29.91 in 10.0 mi SSW 9.2 mph 16.1 mph 0.01 in Rain Light Rain
7:12 PM 53.6 °F 51.8 °F 94% 29.91 in 10.0 mi Calm Calm - 0.01 in Rain Light Rain
7:53 PM 54.0 °F 50.0 °F 86% 29.92 in 10.0 mi SSW 8.1 mph 18.4 mph 0.02 in Rain Light Rain
8:53 PM 55.0 °F 51.1 °F 86% 29.92 in 10.0 mi SSW 5.8 mph 16.1 mph 0.01 in Rain Light Rain
9:53 PM 54.0 °F 51.1 °F 90% 29.92 in 10.0 mi SSW 6.9 mph - 0.00 in Rain Light Rain
10:53 PM 54.0 °F 51.1 °F 90% 29.91 in 10.0 mi Variable 3.5 mph - 0.02 in Rain Light Rain
11:16 PM 53.6 °F 51.8 °F 94% 29.91 in 10.0 mi Variable 4.6 mph - 0.00 in Rain Light Rain
11:53 PM 52.0 °F 50.0 °F 93% 29.91 in 10.0 mi South 3.5 mph - 0.01 in Rain Light Rain